[[{"header":{"parameterUnit":"m.s-1","parameterCategory":1,"la1":30.2991,"la2":30.254,"lo1":-89.0895,"lo2":-89.0444,"dy":0.0017,"dx":0.0017,"nx":28,"ny":28,"refTime":"2023-09-29T09:00:00:Z","depth":0,"parameterNumber":2,"parameterNumberName":"U-component_of_WINDS"},"data":[0,0,0,0,0,0,0,0,0,0,0,0,0,0,0,0,0,0,0,0,0,0,0,0,0,0,0,0,0,0,0,0,0,0,0,0,0,0,0,0,0,0,0,0,0,0,0,0,0,0,0,0,0,0,0,0,0,0,-3.7383,-3.7384,0,-3.7392,-3.7392,-3.7392,-3.7234,-3.723,-3.7225,-3.7221,-3.723,-3.7234,-3.7238,0,0,0,0,0,0,0,0,0,0,0,0,0,-3.7229,-3.7233,-3.7383,-3.7384,-3.7384,-3.7392,-3.7392,-3.7392,-3.7235,-3.7229,-3.7224,-3.7219,-3.7228,-3.7233,-3.7238,0,0,0,0,0,0,0,0,0,0,0,0,0,-3.7273,-3.7234,-3.7383,-3.7306,-3.7299,-3.7392,-3.7392,-3.7392,-3.7236,-3.7229,-3.7223,-3.7217,-3.7227,-3.7233,-3.7239,-3.7407,0,0,-3.7258,-3.7261,0,0,0,0,0,0,0,0,-3.7271,-3.7279,-3.7317,-3.7311,-3.7304,-3.7305,-3.7341,-3.7397,-3.7237,-3.726,-3.7221,-3.7214,-3.726,-3.7263,-3.7279,-3.7407,-3.7407,-3.7259,-3.7263,-3.7266,-3.7267,0,0,0,0,0,0,0,-3.7268,-3.7278,-3.7387,-3.7318,-3.731,-3.727,-3.727,-3.7351,-3.7296,-3.7257,-3.7246,-3.7249,-3.7255,-3.7273,-3.7278,-3.7407,-3.7259,-3.7264,-3.7268,-3.7271,-3.7672,-3.7679,0,0,0,0,0,0,-3.7276,-3.7276,-3.7386,-3.7387,-3.7271,-3.7279,-3.7277,-3.7311,-3.7294,-3.7286,-3.7255,-3.7242,-3.7266,-3.7271,-3.7278,-3.7471,-3.7266,-3.7271,-3.7275,-3.7666,-3.7674,-3.7681,0,0,0,0,0,0,-3.7273,-3.7287,-3.7386,-3.7329,-3.7338,-3.7288,-3.7327,-3.7315,-3.7333,-3.7292,-3.7282,-3.7283,-3.7261,-3.7269,-3.7375,-3.747,-3.7274,-3.728,-3.7657,-3.7668,-3.7678,-3.7862,0,0,0,0,0,0,-3.7269,-3.7287,-3.735,-3.7331,-3.7342,-3.7485,-3.7333,-3.732,-3.7344,-3.7327,-3.7316,-3.7308,-3.7256,-3.7367,-3.7382,-3.7475,-3.7285,-3.7649,-3.7662,-3.7674,-3.7847,-3.7877,-3.7903,0,0,0,0,0,-3.7264,-3.7402,-3.7354,-3.7368,-3.742,-3.749,-3.7496,-3.7434,-3.7352,-3.7415,-3.7389,-3.7309,-3.7458,-3.7379,-3.7395,-3.7491,-3.7642,-3.7658,-3.7673,-3.7834,-3.7871,-3.7902,0,0,0,0,0,0,-3.7432,-3.7398,-3.7345,-3.748,-3.749,-3.7463,-3.754,-3.7475,-3.7507,-3.749,-3.7411,-3.741,-3.7529,-3.7521,-3.7434,-3.7652,-3.7535,-3.7555,-3.7653,-3.7687,-3.7714,-3.7713,-3.729,0,0,0,0,0,-3.7486,-3.7546,-3.7512,-3.7635,-3.7642,-3.7592,-3.762,-3.7571,-3.7577,-3.758,-3.7562,-3.7571,-3.7619,-3.7653,-3.7695,-3.7845,-3.784,-3.7919,-3.7947,-3.797,-3.7987,-3.8065,-3.81,-3.7732,-3.7732,-3.7732,0,0,-3.7595,-3.7584,-3.7626,-3.7668,-3.767,-3.7733,-3.7596,-3.7669,-3.7715,-3.7591,-3.769,-3.7678,-3.7683,-3.7812,-3.7868,-3.7808,-3.8088,-3.799,-3.8009,-3.8013,-3.8085,-3.8119,-3.815,-3.7743,-3.7741,-3.7739,0,0,-3.7827,-3.7826,-3.7927,-3.7931,-3.7936,-3.7901,-3.7926,-3.791,-3.7897,-3.7995,-3.7903,-3.7958,-3.8043,-3.805,-3.8065,-3.8302,-3.8228,-3.8318,-3.8463,-3.8539,-3.8568,-3.8594,-3.8677,-3.8707,-3.8335,-3.8336,-3.8336,0,-3.7963,-3.8055,-3.7987,-3.8067,-3.8088,-3.7979,-3.8081,-3.8089,-3.8107,-3.8124,-3.8057,-3.8162,-3.8158,-3.8286,-3.8344,-3.8361,-3.8385,-3.8318,-3.857,-3.8594,-3.8617,-3.8695,-3.8727,-3.8346,-3.8345,-3.8344,-3.8343,0,-3.8221,-3.8287,-3.8369,-3.8389,-3.8419,-3.851,-3.8455,-3.8494,-3.8443,-3.8416,-3.8518,-3.8509,-3.8547,-3.8575,-3.8526,-3.8697,-3.866,-3.8584,-3.8465,-3.8664,-3.8736,-3.8765,-3.8362,-3.8358,-3.8355,-3.8352,0,0,-3.8558,-3.854,-3.8571,-3.8579,-3.8576,-3.8625,-3.8711,-3.8749,-3.8783,-3.88,-3.8869,-3.8945,-3.8874,-3.8891,-3.8842,-3.891,-3.9096,-3.8824,-3.8823,-3.8874,-3.9283,-3.9339,-3.9375,-3.9049,-3.9054,-3.9059,-3.9282,0,-3.8782,-3.8927,-3.8869,-3.9019,-3.9078,-3.8977,-3.9051,-3.9058,-3.9035,-3.9082,-3.9056,-3.911,-3.9013,-3.9023,-3.9086,-3.9061,-3.9177,-3.9044,-3.9111,-3.9115,-3.9111,-3.9413,-3.9473,-3.9684,-3.931,-3.9315,-3.9318,0,-3.9062,-3.9091,-3.9247,-3.9234,-3.9256,-3.9324,-3.9354,-3.9401,-3.9406,-3.9385,-3.9405,-3.9341,-3.9424,-3.9308,-3.942,-3.9331,-3.9355,-3.9348,-3.9354,-3.9356,-3.9227,-3.9422,-3.975,-3.9781,-3.9362,-3.9359,-3.9355,0,-3.929,-3.9368,-3.947,-3.9481,-3.9468,-3.9518,-3.9515,-3.9514,-3.9541,-3.9567,-3.9584,-3.962,-3.964,-3.9669,-3.9617,-3.9537,-3.9737,-3.9616,-3.972,-3.9722,-3.9765,-3.9763,-4.01,-3.9785,-3.9784,-3.9784,-3.9783,0,-3.9545,-3.9644,-3.9572,-3.9636,-3.9744,-3.9676,-3.9785,-3.9771,-3.9771,-3.983,-3.9745,-3.9802,-3.973,-3.978,-3.974,-3.9839,-3.9849,-3.9833,-3.9821,-3.984,-3.9841,-3.9853,-3.9836,-3.9792,-3.979,-3.9789,-3.9787,0,-3.9817,-3.9773,-3.9878,-3.9858,-3.9856,-3.9936,-3.9918,-3.9976,-3.9948,-4.0023,-4.0037,-3.9992,-4.0047,-3.9998,-4.0051,-4.0023,-4.0155,-4.0122,-4.0153,-4.0143,-4.0249,-4.0239,-4.0604,-4.0648,-4.0307,-4.031,-4.0313,0,-3.9981,-4.0055,-4.0043,-4.0077,-4.0079,-4.0134,-4.0161,-4.0098,-4.0129,-4.0141,-4.0197,-4.0245,-4.0279,-4.0371,-4.0343,-4.0382,-4.0349,-4.0474,-4.0354,-4.0371,-4.0349,-4.0344,-4.0351,-4.0498,-4.0502,-4.0505,-4.0508,0,-4.0277,-4.0252,-4.0294,-4.033,-4.0364,-4.0389,-4.0406,-4.0439,-4.0374,-4.0414,-4.0468,-4.0495,-4.0549,-4.0596,-4.0627,-4.0624,-4.0556,-4.0547,-4.0572,-4.0591,-4.0605,-4.0597,-4.0217,-4.0538,-4.0535,-4.0533,-4.0531,-4.053,-4.0499,-4.0559,-4.0561,-4.061,-4.0618,-4.0636,-4.0689,-4.0668,-4.0713,-4.0751,-4.0712,-4.0778,-4.0782,-4.0816,-4.0821,-4.0872,-4.0819,-4.0857,-4.0866,-4.0876,-4.0891,-4.0599,-4.0878,-4.0877,-4.0876,-4.0875,-4.0874,0,-4.0789,-4.0785,-4.0832,-4.0859,-4.0899,-4.0832,-4.0849,-4.0886,-4.0945,-4.0955,-4.0991,-4.1054,-4.11,-4.1077,-4.1117,-4.1162,-4.1131,-4.1174,-4.1169,-4.1169,-4.0936,-4.0909,-4.1198,-4.1198,-4.1198,-4.1198,-4.1198,-4.1198,-4.0944,-4.1043,-4.1018,-4.112,-4.1115,-4.118,-4.1195,-4.1212,-4.1218,-4.1293,-4.1331,-4.1316,-4.1312,-4.1351,-4.1391,-4.1382,-4.14,-4.1454,-4.1435,-4.1218,-4.1186,-4.1155,-4.1129,-4.1459,-4.146,-4.1663,-4.1665,-4.1666]},{"header":{"parameterUnit":"m.s-1","parameterCategory":1,"la1":30.2991,"la2":30.254,"lo1":-89.0895,"lo2":-89.0444,"dy":0.0017,"dx":0.0017,"nx":28,"ny":28,"refTime":"2023-09-29T09:00:00:Z","depth":0,"parameterNumber":3,"parameterNumberName":"V-component_of_WINDS"},"data":[0,0,0,0,0,0,0,0,0,0,0,0,0,0,0,0,0,0,0,0,0,0,0,0,0,0,0,0,0,0,0,0,0,0,0,0,0,0,0,0,0,0,0,0,0,0,0,0,0,0,0,0,0,0,0,0,0,0,-1.9423,-1.9424,0,-1.9442,-1.9442,-1.9442,-1.9435,-1.9435,-1.9434,-1.9434,-1.9453,-1.9454,-1.9455,0,0,0,0,0,0,0,0,0,0,0,0,0,-1.9381,-1.9382,-1.9423,-1.9424,-1.9424,-1.9442,-1.9442,-1.9442,-1.9435,-1.9435,-1.9434,-1.9434,-1.9453,-1.9454,-1.9455,0,0,0,0,0,0,0,0,0,0,0,0,0,-1.9399,-1.9382,-1.9423,-1.9423,-1.9423,-1.9442,-1.9442,-1.9442,-1.9435,-1.9435,-1.9434,-1.9434,-1.9452,-1.9453,-1.9455,-1.9476,0,0,-1.9459,-1.9459,0,0,0,0,0,0,0,0,-1.9398,-1.9401,-1.9422,-1.9423,-1.9423,-1.9436,-1.9434,-1.9453,-1.9436,-1.9431,-1.9434,-1.9433,-1.9448,-1.9449,-1.9454,-1.9477,-1.9477,-1.9459,-1.946,-1.946,-1.9461,0,0,0,0,0,0,0,-1.9397,-1.94,-1.9431,-1.9423,-1.9423,-1.9421,-1.9423,-1.9438,-1.9442,-1.9431,-1.9431,-1.9433,-1.9448,-1.9453,-1.9454,-1.9478,-1.9459,-1.946,-1.9461,-1.9462,-1.9516,-1.9517,0,0,0,0,0,0,-1.9396,-1.9399,-1.943,-1.9431,-1.9409,-1.9422,-1.9424,-1.9432,-1.9442,-1.9443,-1.9433,-1.9432,-1.9451,-1.9453,-1.9455,-1.9479,-1.946,-1.9462,-1.9462,-1.9516,-1.9516,-1.9517,0,0,0,0,0,0,-1.9395,-1.9399,-1.9429,-1.9415,-1.9419,-1.9423,-1.9432,-1.9433,-1.9438,-1.9444,-1.9445,-1.9438,-1.945,-1.9453,-1.947,-1.948,-1.9462,-1.9463,-1.9515,-1.9516,-1.9517,-1.9528,0,0,0,0,0,0,-1.9394,-1.9398,-1.9407,-1.9415,-1.942,-1.9445,-1.9433,-1.9434,-1.944,-1.9439,-1.9448,-1.9449,-1.945,-1.9468,-1.9472,-1.9481,-1.9465,-1.9514,-1.9515,-1.9517,-1.9527,-1.9529,-1.9531,0,0,0,0,0,-1.9392,-1.941,-1.9407,-1.9411,-1.943,-1.9445,-1.9448,-1.9448,-1.9441,-1.9449,-1.9453,-1.9449,-1.9478,-1.947,-1.9474,-1.9484,-1.9514,-1.9515,-1.9516,-1.9526,-1.9529,-1.9531,0,0,0,0,0,0,-1.9403,-1.9411,-1.9408,-1.9429,-1.9436,-1.9444,-1.9454,-1.9452,-1.9461,-1.946,-1.946,-1.9462,-1.9479,-1.9483,-1.9474,-1.9504,-1.9495,-1.9497,-1.9501,-1.9504,-1.9506,-1.9504,-1.9466,0,0,0,0,0,-1.9407,-1.9419,-1.9425,-1.9443,-1.9447,-1.945,-1.9456,-1.9456,-1.9464,-1.9467,-1.9472,-1.9479,-1.949,-1.9497,-1.9507,-1.9527,-1.9529,-1.9536,-1.9538,-1.954,-1.9542,-1.9552,-1.9555,-1.9522,-1.9522,-1.9522,0,0,-1.9417,-1.9423,-1.9431,-1.9445,-1.9451,-1.9462,-1.9453,-1.9466,-1.9474,-1.9469,-1.9485,-1.9489,-1.9497,-1.9515,-1.9523,-1.9519,-1.9551,-1.9542,-1.9543,-1.9544,-1.9554,-1.9557,-1.9559,-1.9523,-1.9523,-1.9523,0,0,-1.9441,-1.9447,-1.9462,-1.9467,-1.9476,-1.9477,-1.9481,-1.9488,-1.949,-1.9506,-1.9502,-1.9512,-1.9531,-1.9536,-1.9542,-1.9566,-1.9562,-1.9569,-1.9581,-1.959,-1.9593,-1.9595,-1.9603,-1.9606,-1.9571,-1.9571,-1.9571,0,-1.9452,-1.947,-1.947,-1.9482,-1.9488,-1.9484,-1.9498,-1.9503,-1.9515,-1.9519,-1.9514,-1.9536,-1.9541,-1.956,-1.9566,-1.957,-1.9574,-1.9568,-1.9592,-1.9595,-1.9597,-1.9604,-1.9607,-1.9572,-1.9571,-1.9571,-1.9571,0,-1.9483,-1.9495,-1.9505,-1.9516,-1.9523,-1.9537,-1.9538,-1.9545,-1.9543,-1.9545,-1.9561,-1.9567,-1.9578,-1.9582,-1.9581,-1.96,-1.9597,-1.9592,-1.9583,-1.9601,-1.9607,-1.961,-1.9573,-1.9572,-1.9572,-1.9572,0,0,-1.9515,-1.9523,-1.9527,-1.9531,-1.9539,-1.9549,-1.9561,-1.9571,-1.9577,-1.9585,-1.9595,-1.961,-1.9605,-1.9611,-1.961,-1.9618,-1.9636,-1.9612,-1.9612,-1.9616,-1.9656,-1.966,-1.9663,-1.9633,-1.9634,-1.9634,-1.9655,0,-1.9539,-1.9561,-1.956,-1.9581,-1.9591,-1.9586,-1.9597,-1.9602,-1.9604,-1.9613,-1.9615,-1.9625,-1.9618,-1.9621,-1.9629,-1.9632,-1.9644,-1.963,-1.9642,-1.9643,-1.964,-1.9667,-1.9671,-1.969,-1.9658,-1.9658,-1.9659,0,-1.957,-1.9577,-1.9599,-1.9604,-1.9608,-1.9618,-1.9626,-1.9635,-1.9641,-1.9641,-1.9647,-1.9645,-1.9657,-1.9647,-1.9663,-1.9654,-1.9659,-1.9661,-1.9661,-1.9663,-1.9652,-1.9668,-1.9697,-1.9699,-1.9663,-1.9663,-1.9662,0,-1.959,-1.9606,-1.962,-1.9624,-1.963,-1.9637,-1.964,-1.9645,-1.9651,-1.9658,-1.9662,-1.967,-1.9675,-1.9681,-1.9681,-1.9674,-1.9697,-1.9688,-1.9697,-1.9697,-1.9703,-1.9702,-1.9732,-1.9706,-1.9706,-1.9706,-1.9706,0,-1.9617,-1.963,-1.9629,-1.9638,-1.9652,-1.9651,-1.9665,-1.9667,-1.9671,-1.968,-1.9676,-1.9684,-1.9684,-1.9692,-1.9692,-1.9704,-1.9707,-1.9707,-1.9707,-1.9707,-1.9707,-1.971,-1.9709,-1.9707,-1.9707,-1.9706,-1.9706,0,-1.9642,-1.9642,-1.9657,-1.9662,-1.9663,-1.9673,-1.9677,-1.9685,-1.9685,-1.9696,-1.9699,-1.97,-1.9709,-1.971,-1.9721,-1.972,-1.9736,-1.9734,-1.9734,-1.9733,-1.9743,-1.9742,-1.9776,-1.9779,-1.9751,-1.9751,-1.9752,0,-1.9659,-1.9669,-1.9673,-1.9679,-1.9682,-1.9691,-1.9696,-1.9695,-1.97,-1.9707,-1.9714,-1.9722,-1.9729,-1.9744,-1.9746,-1.9754,-1.9752,-1.9763,-1.9753,-1.9753,-1.9752,-1.9751,-1.9751,-1.9765,-1.9766,-1.9766,-1.9766,0,-1.9689,-1.9688,-1.9696,-1.9703,-1.9709,-1.9715,-1.972,-1.9725,-1.9724,-1.973,-1.9739,-1.9744,-1.9754,-1.9763,-1.977,-1.9773,-1.9769,-1.9769,-1.9772,-1.9772,-1.9771,-1.9771,-1.9739,-1.9768,-1.9768,-1.9768,-1.9768,-1.9768,-1.971,-1.9718,-1.9722,-1.973,-1.9734,-1.9738,-1.9746,-1.9747,-1.9754,-1.9762,-1.9761,-1.9771,-1.9775,-1.9784,-1.9787,-1.9795,-1.9791,-1.9795,-1.9796,-1.9797,-1.9797,-1.977,-1.9796,-1.9796,-1.9796,-1.9796,-1.9796,0,-1.9739,-1.9741,-1.9748,-1.9755,-1.9762,-1.9757,-1.9762,-1.9768,-1.9776,-1.978,-1.9787,-1.9796,-1.9804,-1.9806,-1.9813,-1.9819,-1.9817,-1.9821,-1.982,-1.9821,-1.9801,-1.9798,-1.9822,-1.9822,-1.9822,-1.9822,-1.9822,-1.9822,-1.9755,-1.9767,-1.9767,-1.9781,-1.9783,-1.9792,-1.9795,-1.9799,-1.9802,-1.9813,-1.9819,-1.982,-1.9823,-1.983,-1.9837,-1.9837,-1.984,-1.9844,-1.9843,-1.9825,-1.9822,-1.982,-1.9817,-1.9844,-1.9844,-1.9862,-1.9863,-1.9863]}]]